Montagu Bay, Australia

4:06 PM AEST on June 29, 2017 (GMT +1000)
Rose Bay, Tasmania | | Change Station

Elev 200 ft 42.86 °S, 147.36 °E | Updated 20 seconds ago

Partly Cloudy
Partly Cloudy
48.6 °F
Feels Like 47 °F
N
4.3
Wind Variable Wind from NNW
Gusts 7.4 mph

Today
High -- | Low -- °F
--% Chance of Precip.
Yesterday
High -- | Low -- °F
Precip. -- in
Pressure 29.89 in
Visibility 6.2 miles
Clouds Few 3000 ft
Scattered Clouds 5000 ft
Windchill 47 °F
Dew Point 37 °F
Humidity 65%
Rainfall 0.00 in
Snow Depth Not available.
7:42 AM 4:45 PM
Waxing Crescent, 32% visible
METAR YMHB 290600Z 23018KT 9999 FEW030 SCT050 08/M00 Q1012
Pressure 29.89 in
Visibility 6.2 miles
Clouds Few 3000 ft
Scattered Clouds 5000 ft
Windchill 47 °F
Dew Point 37 °F
Humidity 65%
Rainfall 0.00 in
Snow Depth Not available.
7:42 AM 4:45 PM
Waxing Crescent, 32% visible
METAR YMHB 290600Z 23018KT 9999 FEW030 SCT050 08/M00 Q1012

Get Severe Weather Alerts

Thanks for signing up!

Be on the lookout for a verification email in your inbox.

You'll start receiving the daily forecast at 6 AM.

×

10-Day Weather Forecast

×

Almanac

Astronomy

Jun. 29, 2017 Rise Set
Actual Time
Civil Twilight
Nautical Twilight
Astronomical Twilight
Moon
Length of Visible Light
Length of Day
Tomorrow will be .
, % of the Moon is Illuminated

Today's Extremes

Country Highs Country Lows

Community

WunderPhotos

Category 6

Welcome to Category 6. This is the collective home for Weather Underground's featured writeups by Dr. Jeff Masters (right), Bob Henson (left), Chris Burt, and other regular contributors.

Nearby

Air Quality

  Air Quality AQ Index Pollutant
Not available.

Snow Depth

Station Depth Elevation

Earthquake Activity

City Distance Mag. Time & Date
Minimum magnitude displayed is 2.5.

Coastal Water Temperatures

Place Temperature

Stations

Nearby Weather Stations

Station Location Temp. Windchill Dew Point Humidity Wind Precip. Elev Updated Type